#�ϑ�����,���ϕ���,���ϕ���,�ő啗��,�ő啗����������,�ő�u�ԕ���,�ő�u�ԕ�����������
#(�N����),(m/s)   ,(16����),(m/s)   ,(16����)        ,(m/s)       ,(16����)            
2012/11/18 0:01,1.5,11,1.5,13,3.3,9
2012/11/18 0:02,1.5,11,1.5,13,2,14
2012/11/18 0:03,1.4,11,1.5,13,1.1,16
2012/11/18 0:04,1.2,11,1.4,13,1,9
2012/11/18 0:05,1.1,12,1.1,12,1.8,15
2012/11/18 0:06,1.1,12,1.1,12,1.5,15
2012/11/18 0:07,1,12,1.1,12,0.5,16
2012/11/18 0:08,0.9,12,1,12,0.3,12
2012/11/18 0:09,0.8,13,0.9,11,1.4,13
2012/11/18 0:10,0.7,13,0.8,11,2.1,12
2012/11/18 0:11,0.7,13,0.7,11,2.5,12
2012/11/18 0:12,0.7,13,0.7,11,1.8,13
2012/11/18 0:13,0.9,13,0.9,11,3.8,10
2012/11/18 0:14,1.1,13,1.1,11,3.3,9
2012/11/18 0:15,1.2,12,1.2,12,2.7,10
2012/11/18 0:16,1.2,12,1.2,12,1.3,16
2012/11/18 0:17,1.2,11,1.2,12,2,8
2012/11/18 0:18,1.3,11,1.3,11,2.1,7
2012/11/18 0:19,1.6,11,1.6,11,6.2,10
2012/11/18 0:20,1.7,11,1.7,11,3.6,11
2012/11/18 0:21,1.6,10,1.7,11,2,7
2012/11/18 0:22,1.6,10,1.6,11,1,8
2012/11/18 0:23,1.4,10,1.5,11,1.5,1
2012/11/18 0:24,1.3,11,1.4,11,2,15
2012/11/18 0:25,1.2,12,1.3,11,2.5,15
2012/11/18 0:26,1.4,12,1.4,11,3.5,12
2012/11/18 0:27,1.4,13,1.4,11,2.5,14
2012/11/18 0:28,1.4,13,1.4,11,2.4,12
2012/11/18 0:29,1.2,13,1.4,11,3.5,10
2012/11/18 0:30,1.3,13,1.3,11,4.4,11
2012/11/18 0:31,1.5,13,1.5,10,3.5,10
2012/11/18 0:32,1.6,13,1.6,13,4.2,11
2012/11/18 0:33,1.6,13,1.6,13,0.9,2
2012/11/18 0:34,1.5,13,1.6,13,1,2
2012/11/18 0:35,1.5,13,1.6,13,2.6,16
2012/11/18 0:36,1.4,13,1.5,13,2.4,13
2012/11/18 0:37,1.5,14,1.5,13,2.5,16
2012/11/18 3:45,0.4,13,0.4,13,0.6,12
2012/11/18 3:46,0.2,13,0.4,13,0.6,12
2012/11/18 3:47,0.8,11,0.8,11,2.7,9
2012/11/18 3:48,1.1,10,1.1,10,2.5,8
2012/11/18 3:49,1.2,9,1.2,10,2.1,7
2012/11/18 3:50,1.2,8,1.2,10,1.8,7
2012/11/18 3:51,1.1,7,1.2,10,1.3,3
2012/11/18 3:52,1,7,1.1,10,1.5,15
2012/11/18 3:53,1,5,1,10,1.5,2
2012/11/18 3:54,1,2,1,10,1.8,16
2012/11/18 3:55,1,16,1,10,1.5,14
2012/11/18 3:56,1,16,1,10,1,14
2012/11/18 3:57,0.9,1,1,10,0.5,7
2012/11/18 3:58,0.8,1,0.9,10,0.8,9
2012/11/18 3:59,0.7,16,0.8,9,1.6,12
2012/11/18 4:00,0.7,15,0.7,8,1,1
2012/11/18 4:01,0.7,15,0.7,7,1.3,2
2012/11/18 4:02,0.6,16,0.7,7,1.1,1
2012/11/18 4:03,0.6,16,0.6,5,0.4,16
2012/11/18 4:04,0.6,16,0.6,1,1.9,1
2012/11/18 4:05,0.6,1,0.6,16,1.9,1
2012/11/18 4:06,0.7,2,0.7,16,1.8,1
2012/11/18 4:07,0.7,2,0.7,1,1.4,3
2012/11/18 4:08,0.7,2,0.8,1,0.9,2
2012/11/18 4:09,0.7,2,0.7,2,0.8,15
2012/11/18 4:10,0.8,2,0.8,2,1.9,16
2012/11/18 4:11,0.8,1,0.8,2,2.1,15
2012/11/18 4:12,0.9,1,0.9,1,2.2,15
2012/11/18 4:13,0.9,1,0.9,1,0.9,16
2012/11/18 4:14,0.8,16,0.9,1,1.1,13
2012/11/18 4:15,0.8,16,0.8,1,0.6,8
2012/11/18 4:16,0.7,16,0.8,1,0.5,12
2012/11/18 4:17,0.6,15,0.7,1,0.3,4
2012/11/18 4:18,0.5,14,0.6,1,0.3,11
2012/11/18 4:19,0.5,14,0.5,1,0.1,5
2012/11/18 4:20,0.5,12,0.5,1,1.8,8
2012/11/18 4:21,0.5,10,0.6,1,1.6,9
2012/11/18 4:22,0.5,9,0.5,1,2.1,9
2012/11/18 4:23,0.6,9,0.6,1,2.1,10
2012/11/18 4:24,0.6,9,0.6,16,1,8
2012/11/18 4:25,0.6,9,0.6,16,0.6,12
2012/11/18 4:26,0.6,9,0.6,16,0.4,13
2012/11/18 4:27,0.6,9,0.6,15,0.8,5
2012/11/18 4:28,0.7,8,0.7,8,1.4,6
2012/11/18 4:29,0.8,8,0.8,8,1.6,7
2012/11/18 4:30,0.9,8,0.9,8,2.9,7
2012/11/18 4:31,1,8,1,8,3.7,8
2012/11/18 4:32,1.1,8,1.1,8,4.2,9
2012/11/18 4:33,1.1,8,1.1,8,3.5,8
2012/11/18 4:34,1.2,8,1.2,8,3.7,9
2012/11/18 4:35,1.4,8,1.4,8,3,10
2012/11/18 4:36,1.5,8,1.5,8,3.2,8
2012/11/18 4:37,1.5,8,1.5,8,1.3,8
2012/11/18 4:38,1.6,8,1.6,8,1.3,4
2012/11/18 4:39,1.6,8,1.6,8,1.9,1
2012/11/18 4:40,1.5,7,1.6,8,2.5,2
2012/11/18 4:41,1.4,6,1.5,8,2.1,4
2012/11/18 4:42,1.3,6,1.4,8,1.5,4
2012/11/18 4:43,1.2,5,1.3,8,1.5,6
2012/11/18 4:44,1.1,5,1.2,8,1,6
2012/11/18 4:45,1,5,1.1,8,2,7
2012/11/18 11:23,1.1,1,1.1,1,1.3,1
2012/11/18 11:22,1,15,1.1,1,1.3,1
2012/11/18 11:23,1,15,1.1,2,1.5,3
2012/11/18 11:24,2,1,2,1,5,1
2012/11/18 11:25,2.3,1,2.3,1,5,2
2012/11/18 11:26,2.2,2,2.4,1,3.9,1
2012/11/18 11:27,1.8,2,2.1,1,1.4,15
2012/11/18 11:28,1.5,2,1.7,1,0.8,16
2012/11/18 11:29,1.6,1,1.6,1,4.3,11
2012/11/18 11:30,1.8,16,1.8,1,4.8,11
2012/11/18 11:31,2,14,2,1,5.8,12
2012/11/18 11:32,2.4,14,2.4,1,7.8,11
2012/11/18 11:33,2.7,13,2.7,13,6.8,13
2012/11/18 11:34,2.8,13,2.8,13,3.9,11
2012/11/18 11:35,2.9,13,2.9,13,8.9,15
2012/11/18 11:36,3.5,13,3.5,13,11.9,16
2012/11/18 11:37,4.2,13,4.2,13,11.9,16
2012/11/18 11:38,4.6,13,4.6,13,9.8,15
2012/11/18 11:39,4.8,14,4.8,13,7.4,15
2012/11/18 11:40,4.9,14,4.9,14,7.1,16
2012/11/18 11:41,4.9,14,4.9,14,7.7,16
2012/11/18 11:42,4.8,15,4.9,14,9,16
2012/11/18 11:43,5.1,15,5.1,15,11.6,16
2012/11/18 11:44,5.5,15,5.5,15,14.3,16
2012/11/18 11:45,5.6,15,5.6,15,8.6,1
2012/11/18 11:46,5.1,15,5.6,15,7.1,15
2012/11/18 11:47,4.7,15,5.1,15,4.1,11
2012/11/18 11:48,4.5,15,4.6,15,4.7,16
2012/11/18 11:49,4.3,15,4.4,15,5,16
2012/11/18 11:50,4.7,15,4.7,15,14.7,16
2012/11/18 11:51,5,16,5.1,15,14.7,16
2012/11/18 11:52,5.1,15,5.1,15,9.1,15
2012/11/18 11:53,4.5,15,5,15,3.8,1
2012/11/18 11:54,3.9,15,4.4,15,6.8,15
2012/11/18 11:55,3.4,15,3.8,15,0.9,8
2012/11/18 11:56,3.2,16,3.4,15,1.8,3
2012/11/18 11:57,3.1,1,3.2,16,3.6,16
2012/11/18 11:58,3.1,1,3.1,16,5,16
2012/11/18 11:59,3.3,1,3.3,16,7.6,1
2012/11/18 12:00,2.9,1,3.3,16,8.9,1
2012/11/18 12:01,2.6,1,2.9,16,5.5,16
2012/11/18 12:02,2.5,1,2.5,15,6.7,1
2012/11/18 12:03,2.7,2,2.7,15,6.9,1
2012/11/18 12:04,2.9,2,2.9,15,5,3
2012/11/18 12:05,3.1,1,3.1,15,5.5,1
2012/11/18 12:06,3.2,1,3.2,1,6.4,16
2012/11/18 12:07,3.2,1,3.2,1,3,1
2012/11/18 12:08,3.1,1,3.2,1,9.4,2
2012/11/18 12:09,2.9,1,3.1,1,6.4,15
2012/11/18 12:10,3,1,3,1,8.4,16
2012/11/18 12:11,3.2,1,3.2,1,7.8,16
2012/11/18 12:12,3.1,1,3.3,1,4.2,14
2012/11/18 12:13,3,1,3.1,1,4.8,1
2012/11/18 12:14,2.9,1,3,1,3.5,15
2012/11/18 12:15,2.8,1,2.8,1,5,2
2012/11/18 12:16,2.9,16,2.9,1,8.5,16
2012/11/18 12:17,3,16,3,1,5.1,9
2012/11/18 12:18,3,16,3.1,1,4.8,3
2012/11/18 12:19,3,16,3.1,1,5.7,16
2012/11/18 12:20,2.8,1,3.1,1,6.4,2
2012/11/18 12:21,2.8,1,2.8,1,7.4,1
2012/11/18 12:22,3.1,1,3.1,1,9.7,15
2012/11/18 12:23,3.2,1,3.2,1,9.3,14
2012/11/18 12:24,3.4,1,3.4,1,5.4,1
2012/11/18 12:25,3.5,1,3.5,1,4.1,2
2012/11/18 12:26,3.4,1,3.4,1,3.7,3
2012/11/18 12:27,3.5,1,3.5,1,5.1,1
2012/11/18 12:28,3.6,1,3.6,1,6.1,2
2012/11/18 12:29,3.6,1,3.7,1,4.7,2
2012/11/18 12:30,3.5,1,3.6,1,4.8,5
2012/11/18 12:31,3.1,1,3.4,1,4.2,14
2012/11/18 12:32,2.7,1,3.1,1,5.8,2
2012/11/18 12:33,2.3,2,2.7,1,2.9,3
2012/11/18 12:34,2.3,2,2.4,1,5,13
2012/11/18 12:35,2.4,2,2.4,1,8.2,16
2012/11/18 12:36,2.4,1,2.5,1,5,2
2012/11/18 12:37,2.4,1,2.4,1,5.6,2
2012/11/18 12:38,2.3,1,2.4,1,5.8,2
2012/11/18 12:39,2.6,1,2.6,1,7.9,16
2012/11/18 12:40,2.7,1,2.7,1,6.9,1
2012/11/18 12:41,2.9,1,2.9,1,5.2,1
2012/11/18 12:42,3.1,1,3.1,1,8.9,1
2012/11/18 12:43,3.3,1,3.3,1,6,16
2012/11/18 12:44,3.5,1,3.5,1,6,16
2012/11/18 12:45,3.5,1,3.6,1,6.3,16
2012/11/18 13:20,4.5,1,4.5,1,5.2,16
2012/11/18 13:21,4.1,16,4.6,16,6.8,1
2012/11/18 13:22,2.8,15,3.8,16,3.1,14
2012/11/18 13:23,2.2,16,2.7,16,2,16
2012/11/18 13:24,2.3,16,2.3,16,4.3,16
2012/11/18 13:25,2.6,16,2.6,16,5.8,16
2012/11/18 13:26,2.5,16,2.6,16,3.5,16
2012/11/18 13:27,2.6,16,2.6,16,4.5,1
2012/11/18 13:28,2.6,16,2.6,16,7.5,16
2012/11/18 13:29,3.2,16,3.2,16,12.5,16
2012/11/18 13:30,3.6,16,3.6,16,10,16
2012/11/18 13:31,3.9,16,3.9,16,12.2,16
2012/11/18 13:32,4.1,16,4.1,16,5.2,13
2012/11/18 13:33,4.3,16,4.3,16,4.7,10
2012/11/18 13:34,4.2,15,4.3,16,2.5,14
2012/11/18 13:35,4,16,4.1,16,6.5,1
2012/11/18 13:36,4,16,4,16,4.5,16
2012/11/18 13:37,3.9,16,4,16,3.8,4
2012/11/18 13:38,3.8,16,3.9,16,3.1,16
2012/11/18 13:39,3.4,16,3.8,16,5.2,16
2012/11/18 13:40,3.2,16,3.4,16,10.1,15
2012/11/18 13:41,3.1,16,3.2,16,10,15
2012/11/18 13:42,3,15,3.1,16,4.5,14
2012/11/18 13:43,3,16,3,16,3.7,3
2012/11/18 13:44,3.3,1,3.3,15,10,16
2012/11/18 13:45,3.5,16,3.5,16,8.6,15
2012/11/18 17:53,1,16,1,16,1.1,16
2012/11/18 17:54,0.8,13,1,16,1.3,16
2012/11/18 17:55,0.7,14,0.7,16,1.5,15
2012/11/18 17:56,0.9,14,0.9,16,1.8,14
2012/11/18 17:57,0.9,14,0.9,16,1.3,15
2012/11/18 17:58,0.8,14,0.9,16,0.9,16
2012/11/18 17:59,0.8,15,0.8,16,1.3,16
2012/11/18 18:00,0.8,15,0.8,16,1.5,16
2012/11/18 18:01,0.8,15,0.8,16,1.5,1
2012/11/18 18:02,0.9,15,0.9,16,2.4,15
2012/11/18 18:03,1,15,1,16,2.5,14
2012/11/18 18:04,1.1,15,1.1,15,2.4,14
2012/11/18 18:05,1.2,15,1.2,15,1.6,14
2012/11/18 18:06,1.1,14,1.2,15,1.3,13
2012/11/18 18:07,1.1,14,1.1,15,1.3,14
2012/11/18 18:08,1.2,14,1.2,15,1.4,14
2012/11/18 18:09,1.1,14,1.2,15,0.8,14
2012/11/18 18:10,1.1,14,1.1,15,0.4,14
2012/11/18 18:11,1,14,1.1,15,0,13
2012/11/18 18:12,0.9,14,1,15,1,16
2012/11/18 18:13,0.8,14,0.9,15,0.9,16
2012/11/18 18:14,0.6,15,0.7,15,0.6,4
2012/11/18 18:15,0.5,15,0.6,15,0.8,16
2012/11/18 18:16,0.4,15,0.5,14,0.5,3
2012/11/18 18:17,0.4,15,0.4,14,0.5,5
2012/11/18 18:18,0.3,15,0.4,14,0.5,13
2012/11/18 18:19,0.4,16,0.4,14,2.2,1
2012/11/18 18:20,0.6,16,0.6,14,3.7,16
2012/11/18 18:21,0.9,16,0.9,14,3.3,16
2012/11/18 18:22,1,16,1,16,3,16
2012/11/18 18:23,1.1,16,1.1,16,3,15
2012/11/18 18:24,1.3,15,1.3,15,3.5,14
2012/11/18 18:25,1.4,15,1.4,15,2.5,16
2012/11/18 18:26,1.6,15,1.6,15,2.4,15
2012/11/18 18:27,1.7,15,1.7,15,2.2,13
2012/11/18 18:28,1.8,15,1.8,15,2.4,16
2012/11/18 18:29,1.9,15,2,15,3.7,15
2012/11/18 18:30,1.8,15,1.9,15,3,15
2012/11/18 18:31,1.8,15,1.9,15,3.2,16
2012/11/18 18:32,1.8,15,1.8,15,1.8,1
2012/11/18 18:33,1.7,15,1.8,15,1.3,15
2012/11/18 18:34,1.5,16,1.7,15,1.3,3
2012/11/18 18:35,1.4,16,1.5,15,1.1,1
2012/11/18 18:36,1.2,15,1.4,15,0.4,16
2012/11/18 18:37,1.2,15,1.2,15,1.3,12
2012/11/18 18:38,1.1,16,1.2,15,2.7,1
2012/11/18 18:39,1.1,16,1.2,15,2.9,16
2012/11/18 18:40,1,16,1.1,15,4.4,16
2012/11/18 18:41,1,16,1,15,4.9,15
2012/11/18 18:42,1.2,16,1.2,15,3,1
2012/11/18 18:43,1.2,16,1.2,15,2.5,2
2012/11/18 18:44,1.3,16,1.3,16,3.9,15
2012/11/18 18:45,1.6,16,1.6,16,6.1,16
2012/11/18 18:46,1.9,16,1.9,16,5.1,16
2012/11/18 18:47,2.1,16,2.1,16,5.4,16
2012/11/18 18:48,2.3,16,2.3,16,6.4,1
2012/11/18 18:49,2.4,16,2.4,16,5.6,2
2012/11/18 18:50,2.6,16,2.6,16,7.1,2
2012/11/18 18:51,2.6,1,2.6,16,4.2,1
2012/11/18 18:52,2.6,1,2.6,16,3.7,16
2012/11/18 18:53,2.7,1,2.7,1,3.3,1
2012/11/18 18:54,2.7,1,2.8,1,4.3,16
2012/11/18 18:55,2.7,1,2.8,1,5.5,2
2012/11/18 18:56,2.4,1,2.6,1,1.5,1
2012/11/18 18:57,2.3,1,2.4,1,2.9,1
2012/11/18 18:58,2,1,2.3,1,2.5,1
2012/11/18 18:59,1.9,1,2,1,3,2
2012/11/18 19:00,1.7,1,1.9,1,2.1,3
2012/11/18 19:01,1.5,2,1.6,1,1.5,3
2012/11/18 19:02,1.4,2,1.5,1,1.6,5
2012/11/18 19:03,1.4,2,1.4,1,1.6,5
2012/11/18 19:04,1.2,3,1.4,1,1.4,5
2012/11/18 19:05,1,3,1.2,1,1.4,5
2012/11/18 19:06,1,4,1,1,0.5,10
2012/11/18 19:07,0.9,4,1,1,0.6,13
2012/11/18 19:08,0.8,4,0.9,1,1,13
2012/11/18 19:09,0.8,5,0.8,1,2,14
2012/11/18 19:10,0.8,5,0.8,1,2,14
2012/11/18 19:11,0.9,4,0.9,1,2,15
2012/11/18 19:12,1,15,1,2,3.6,16
2012/11/18 19:13,1,13,1,2,3.8,16
2012/11/18 19:14,1.1,13,1.1,3,3.1,15
2012/11/18 19:15,1.3,14,1.3,14,5.7,15
2012/11/18 19:16,1.5,14,1.5,14,2.9,15
2012/11/18 19:17,1.6,14,1.6,14,2.5,13
2012/11/18 19:18,1.7,14,1.7,14,2.9,13
2012/11/18 19:19,1.7,14,1.7,14,1.9,9
2012/11/18 19:20,1.7,14,1.7,14,2.2,12
2012/11/18 19:21,1.8,13,1.8,14,2.9,14
2012/11/18 19:22,1.7,13,1.8,14,1.6,11
2012/11/18 19:23,1.6,13,1.6,14,2.1,12
2012/11/18 19:24,1.6,13,1.7,14,3,15
2012/11/18 19:25,1.3,12,1.6,14,1.5,8
2012/11/18 19:26,1.2,12,1.3,14,1,9
2012/11/18 19:27,1.1,11,1.2,14,1.4,9
2012/11/18 19:28,1,11,1.1,14,1,8
2012/11/18 19:29,0.9,10,1,14,1,9
2012/11/18 19:30,0.8,10,0.9,14,0.3,9
2012/11/18 19:31,0.7,10,0.8,13,0.3,14
2012/11/18 19:32,0.6,10,0.6,13,1.1,15
2012/11/18 19:33,0.5,11,0.6,13,1.1,16
2012/11/18 19:34,0.5,11,0.5,13,0.6,15
2012/11/18 19:35,0.4,11,0.5,12,1.4,7
2012/11/18 19:36,0.6,11,0.6,12,2.6,6
2012/11/18 19:37,0.6,9,0.6,11,2.4,7
2012/11/18 19:38,0.7,6,0.7,10,0.9,5
